Merced, CA

11:49 AM PDT on September 26, 2017 (GMT -0700)
Merced Municipal-Macready

Weather History for KMCE - February, 2013

Change the Weather History Date:

Saturday, February 9, 2013

  Actual Average Record
Temperature  
Mean Temperature 43 °F 49 °F  
Max Temperature 55 °F 59 °F 72 °F (2012)
Min Temperature 30 °F 38 °F 26 °F (2003)
Degree Days  
Heating Degree Days 22    
Month to date heating degree days 155  
Since 1 July heating degree days 1615  
Cooling Degree Days 0    
Month to date cooling degree days 0  
Year to date cooling degree days 0  
Moisture  
Dew Point 32 °F    
Average Humidity 69    
Maximum Humidity 100    
Minimum Humidity 38    
Precipitation  
Precipitation 0.00 in 0.08 in 0.53 in (1999)
Month to date precipitation 0.05 0.69  
Year to date precipitation 1.09 3.30  
Since 1 July precipitation 5.92  
Snow  
Snow 0.00 in - - ()
Month to date snowfall 0.0  
Since 1 July snowfall 0.0  
Snow Depth 0.00 in    
Sea Level Pressure  
Sea Level Pressure 30.05 in    
Wind  
Wind Speed 1 mph (ENE)    
Max Wind Speed 7 mph    
Max Gust Speed -    
Visibility 8 miles    
Events Fog    
T = Trace of Precipitation, MM = Missing Value Source: NWS Daily Summary

Daily Weather History Graph

Daily Weather History Graph

Search for Another Location

Airport or City:

Trip Planner

Search our weather history database for the weather conditions in past years. The results will help you decide how hot, cold, wet, or windy it might be!

Date:

Astronomy

Feb. 09, 2013 Rise Set
Actual Time 6:57 AM PST 5:35 PM PST
Civil Twilight 6:30 AM PST 6:02 PM PST
Nautical Twilight 5:59 AM PST 6:33 PM PST
Astronomical Twilight 5:29 AM PST 7:03 PM PST
Moon 6:12 AM PST (2/9) 5:23 PM PST (2/9)
Length of Visible Light 11h 32m
Length of Day
10h 38m
Waning Crescent, 0% of the Moon is Illuminated
Feb 9
Waning Crescent
Feb 9
New
Feb 17
First Quarter
Feb 25
Full
Mar 4
Last Quarter

Hourly Weather History & Observations

Time (PST) Temp. Windchill Dew Point Humidity Pressure Visibility Wind Dir Wind Speed Gust Speed Precip Events Conditions
12:53 AM 36.0 °F - 30.9 °F 82% 29.96 in 10.0 mi Calm Calm - N/A   Clear
1:53 AM 34.0 °F - 30.0 °F 85% 29.97 in 10.0 mi Calm Calm - N/A   Clear
2:53 AM 34.0 °F - 30.0 °F 85% 29.98 in 10.0 mi Calm Calm - N/A   Clear
3:53 AM 34.0 °F - 30.0 °F 85% 29.99 in 10.0 mi Calm Calm - N/A   Clear
4:53 AM 36.0 °F - 30.0 °F 79% 29.99 in 10.0 mi Calm Calm - N/A   Clear
5:53 AM 32.0 °F - 28.0 °F 85% 30.00 in 10.0 mi Calm Calm - N/A   Clear
6:53 AM 32.0 °F - 28.0 °F 85% 30.02 in 10.0 mi Calm Calm - N/A   Clear
7:53 AM 33.1 °F - 28.9 °F 85% 30.04 in 10.0 mi Calm Calm - N/A   Clear
8:53 AM 37.0 °F - 32.0 °F 82% 30.06 in 10.0 mi Calm Calm - N/A   Clear
9:39 AM 37.4 °F 33.8 °F 35.6 °F 93% 30.06 in 1.8 mi ESE 4.6 mph - N/A   Partly Cloudy
9:45 AM 37.4 °F 34.9 °F 35.6 °F 93% 30.06 in 0.8 mi SE 3.5 mph - N/A   Mist
9:53 AM 37.9 °F 35.5 °F 37.0 °F 97% 30.07 in 0.5 mi ESE 3.5 mph - N/A Fog Fog
10:05 AM 39.2 °F 37.0 °F 37.4 °F 93% 30.06 in 2.0 mi East 3.5 mph - N/A   Mostly Cloudy
10:14 AM 41.0 °F - 37.4 °F 87% 30.07 in 4.0 mi Calm Calm - N/A   Mostly Cloudy
10:21 AM 41.0 °F - 35.6 °F 81% 30.07 in 7.0 mi Calm Calm - N/A   Partly Cloudy
10:53 AM 45.0 °F - 37.0 °F 74% 30.07 in 10.0 mi Calm Calm - N/A   Clear
11:53 AM 48.0 °F - 37.9 °F 68% 30.06 in 10.0 mi Calm Calm - N/A   Clear
12:53 PM 52.0 °F - 36.0 °F 54% 30.04 in 10.0 mi Calm Calm - N/A   Clear
1:53 PM 53.1 °F - 28.9 °F 40% 30.04 in 10.0 mi NNW 5.8 mph - N/A   Clear
2:53 PM 55.0 °F - 30.0 °F 38% 30.04 in 10.0 mi North 6.9 mph - N/A   Clear
3:53 PM 54.0 °F - 30.0 °F 40% 30.04 in 10.0 mi NNE 4.6 mph - N/A   Clear
4:53 PM 53.1 °F - 32.0 °F 45% 30.04 in 10.0 mi NE 5.8 mph - N/A   Clear
5:53 PM 50.0 °F - 32.0 °F 50% 30.06 in 10.0 mi Calm Calm - N/A   Clear
6:15 PM 48.2 °F - 33.8 °F 58% 30.05 in 10.0 mi Calm Calm - N/A   Clear
6:53 PM 48.0 °F - 32.0 °F 54% 30.06 in 10.0 mi Calm Calm - N/A   Clear
7:53 PM 44.1 °F - 32.0 °F 63% 30.07 in 10.0 mi Calm Calm - N/A   Clear
8:53 PM 43.0 °F - 30.9 °F 62% 30.09 in 10.0 mi Calm Calm - N/A   Clear
9:53 PM 39.9 °F - 30.9 °F 70% 30.10 in 9.0 mi Calm Calm - N/A   Clear
10:53 PM 37.9 °F - 32.0 °F 79% 30.10 in 10.0 mi Calm Calm - N/A   Clear
11:53 PM 34.0 °F 31.0 °F 30.0 °F 85% 30.10 in 8.0 mi SE 3.5 mph - N/A   Clear